Tracking 17142 objects as of 28-May-2015
HD Live streaming from Space Station

SWISSCUBE

Track SWISSCUBE now!
10-day predictions
SWISSCUBE is classified as:


NORAD ID: 35932
Int'l Code: 2009-051B
Perigee: 709.2 km
Apogee: 721.3 km
Inclination: 98.4 °
Period: 98.9 minutes
Semi major axis: 7086 km
RCS: 0.05 m2 (small)
Launch date: September 23, 2009
Source: (SWTZ)

SWISSCUBE is Switzerland's first satellite and will try to detect a phenomenon known as airglow using an off-the-shelf sensor.
Your satellite tracking list
Your tracking list is empty





NASA's NSSDC Master Catalog

Two Line Element Set (TLE):
1 35932U 09051B   15147.27075006  .00000449  00000-0  11423-3 0  9993
2 35932 098.4058 265.8616 0008563 051.1183 309.0777 14.55390407300928

Source of the keplerian elements: AFSPC

N2YO: 333